Weather History for Bremerton, WA

Change the Weather History Date:

Wednesday, September 26, 2012

  Actual Average Record
Temperature  
Mean Temperature 52 °F -  
Max Temperature 66 °F 65 °F 78 °F (2000)
Min Temperature 37 °F 44 °F 35 °F (1999)
Degree Days  
Heating Degree Days 14    
Growing Degree Days 2 (Base 50)    
Moisture  
Dew Point 43 °F    
Average Humidity 73    
Maximum Humidity 93    
Minimum Humidity 49    
Precipitation  
Precipitation 0.00 in - - ()
Sea Level Pressure  
Sea Level Pressure 30.12 in    
Wind  
Wind Speed 2 mph (NE)    
Max Wind Speed 9 mph    
Max Gust Speed -    
Visibility 9 miles    
Events      
Averages and records for this station are not official NWS values.
T = Trace of Precipitation, MM = Missing Value Source: NWS Daily Summary

Daily Weather History Graph

Daily Weather History Graph

Search for Another Location

Airport:

Trip Planner

Search our weather history database for the weather conditions in past years. The results will help you decide how hot, cold, wet, or windy it might be!

Date:

Astronomy

Sep. 26, 2012 Rise Set
Actual Time 7:04 AM PDT 6:59 PM PDT
Civil Twilight 6:33 AM PDT 7:29 PM PDT
Nautical Twilight 5:57 AM PDT 8:05 PM PDT
Astronomical Twilight 5:20 AM PDT 8:42 PM PDT
Moon 5:11 PM PDT (9/26) 3:23 AM PDT (9/26)
Length of Visible Light 12h 56m
Length of Day
11h 55m
Waxing Gibbous, 88% of the Moon is Illuminated
Sep 26
Waxing Gibbous
Sep 29
Full
Oct 8
Last Quarter
Oct 15
New
Oct 21
First Quarter

Hourly Weather History & Observations

Time (PDT) Temp. Windchill Dew Point Humidity Pressure Visibility Wind Dir Wind Speed Gust Speed Precip Events Conditions
12:15 AM 44.6 °F - 39.2 °F 81% 30.15 in 1.5 mi Calm Calm - N/A   Clear
12:35 AM 44.6 °F - 41.0 °F 87% 30.15 in 10.0 mi Calm Calm - N/A   Clear
1:15 AM 44.6 °F - 39.2 °F 81% 30.15 in 10.0 mi Calm Calm - N/A   Clear
1:35 AM 44.6 °F 43.1 °F 39.2 °F 81% 30.16 in 10.0 mi NNE 3.5 mph - N/A   Clear
1:55 AM 48.2 °F - 44.6 °F 87% 30.15 in 10.0 mi North 3.5 mph - N/A   Clear
2:15 AM 44.6 °F - 41.0 °F 87% 30.15 in 3.0 mi Calm Calm - N/A   Clear
2:35 AM 50.0 °F - 46.4 °F 87% 30.14 in 10.0 mi NE 6.9 mph - N/A   Clear
2:55 AM 50.0 °F - 44.6 °F 82% 30.14 in 10.0 mi NNE 5.8 mph - N/A   Clear
3:15 AM 48.2 °F - 44.6 °F 87% 30.14 in 10.0 mi NE 4.6 mph - N/A   Clear
3:35 AM 48.2 °F - 42.8 °F 82% 30.14 in 10.0 mi NNE 4.6 mph - N/A   Clear
3:55 AM 48.2 °F - 42.8 °F 82% 30.14 in 10.0 mi North 3.5 mph - N/A   Clear
4:15 AM 44.6 °F - 39.2 °F 81% 30.14 in 10.0 mi Calm Calm - N/A   Clear
4:35 AM 42.8 °F - 37.4 °F 81% 30.14 in 8.0 mi Calm Calm - N/A   Clear
4:55 AM 42.8 °F - 37.4 °F 81% 30.14 in 10.0 mi Calm Calm - N/A   Clear
5:35 AM 42.8 °F - 37.4 °F 81% 30.13 in 9.0 mi Calm Calm - N/A   Clear
5:55 AM 42.8 °F - 37.4 °F 81% 30.13 in 10.0 mi Calm Calm - N/A   Clear
6:15 AM 39.2 °F - 35.6 °F 87% 30.14 in 4.0 mi Calm Calm - N/A   Clear
6:35 AM 39.2 °F - 33.8 °F 81% 30.14 in 0.2 mi Calm Calm - N/A   Unknown
6:55 AM 37.4 °F - 32.0 °F 81% 30.13 in 0.5 mi Calm Calm - N/A   Unknown
7:15 AM 37.4 °F - 32.0 °F 81% 30.14 in 0.5 mi Calm Calm - N/A   Unknown
7:35 AM 39.2 °F - 35.6 °F 87% 30.14 in 0.2 mi Calm Calm - N/A   Unknown
7:55 AM 39.2 °F - 37.4 °F 93% 30.14 in 1.0 mi Calm Calm - N/A   Clear
8:15 AM 44.6 °F - 41.0 °F 87% 30.15 in 5.0 mi Calm Calm - N/A   Clear
8:35 AM 48.2 °F - 44.6 °F 87% 30.15 in 10.0 mi Calm Calm - N/A   Clear
8:55 AM 51.8 °F - 44.6 °F 76% 30.15 in 10.0 mi NNW 3.5 mph - N/A   Clear
9:15 AM 51.8 °F - 44.6 °F 76% 30.16 in 10.0 mi NE 3.5 mph - N/A   Clear
9:35 AM 51.8 °F - 44.6 °F 76% 30.16 in 10.0 mi NNE 4.6 mph - N/A   Clear
9:55 AM 50.0 °F - 44.6 °F 82% 30.15 in 10.0 mi NNE 5.8 mph - N/A   Clear
10:15 AM 51.8 °F - 46.4 °F 82% 30.16 in 10.0 mi East 3.5 mph - N/A   Mostly Cloudy
10:35 AM 51.8 °F - 46.4 °F 82% 30.16 in 9.0 mi NE 3.5 mph - N/A   Overcast
10:55 AM 51.8 °F - 46.4 °F 82% 30.16 in 10.0 mi East 4.6 mph - N/A   Overcast
11:15 AM 53.6 °F - 46.4 °F 77% 30.16 in 10.0 mi Calm Calm - N/A   Mostly Cloudy
11:35 AM 55.4 °F - 46.4 °F 72% 30.14 in 10.0 mi ESE 3.5 mph - N/A   Partly Cloudy
11:55 AM 55.4 °F - 48.2 °F 77% 30.14 in 10.0 mi East 3.5 mph - N/A   Clear
12:15 PM 60.8 °F - 48.2 °F 63% 30.14 in 10.0 mi Calm Calm - N/A   Clear
12:35 PM 62.6 °F - 48.2 °F 59% 30.13 in 10.0 mi NE 5.8 mph - N/A   Clear
12:55 PM 62.6 °F - 46.4 °F 55% 30.13 in 10.0 mi North 3.5 mph - N/A   Clear
1:15 PM 62.6 °F - 46.4 °F 55% 30.13 in 10.0 mi NNE 4.6 mph - N/A   Clear
1:35 PM 64.4 °F - 46.4 °F 52% 30.12 in 10.0 mi NE 9.2 mph - N/A   Clear
1:55 PM 64.4 °F - 46.4 °F 52% 30.11 in 10.0 mi ENE 8.1 mph - N/A   Clear
2:15 PM 64.4 °F - 46.4 °F 52% 30.10 in 10.0 mi NNE 4.6 mph - N/A   Clear
2:35 PM 66.2 °F - 46.4 °F 49% 30.10 in 10.0 mi North 5.8 mph - N/A   Clear
2:55 PM 66.2 °F - 46.4 °F 49% 30.10 in 10.0 mi North 3.5 mph - N/A   Clear
3:15 PM 66.2 °F - 48.2 °F 52% 30.10 in 10.0 mi Calm Calm - N/A   Clear
3:35 PM 66.2 °F - 48.2 °F 52% 30.09 in 10.0 mi NE 5.8 mph - N/A   Clear
3:55 PM 66.2 °F - 46.4 °F 49% 30.09 in 10.0 mi NNE 5.8 mph - N/A   Clear
4:15 PM 64.4 °F - 48.2 °F 56% 30.09 in 10.0 mi NNE 8.1 mph - N/A   Clear
4:35 PM 64.4 °F - 46.4 °F 52% 30.09 in 10.0 mi NNE 8.1 mph - N/A   Clear
4:55 PM 64.4 °F - 48.2 °F 56% 30.08 in 10.0 mi NNE 4.6 mph - N/A   Clear
5:15 PM 64.4 °F - 48.2 °F 56% 30.09 in 10.0 mi NE 6.9 mph - N/A   Clear
5:35 PM 64.4 °F - 48.2 °F 56% 30.08 in 10.0 mi NE 4.6 mph - N/A   Clear
5:55 PM 64.4 °F - 48.2 °F 56% 30.08 in 10.0 mi NE 8.1 mph - N/A   Clear
6:35 PM 60.8 °F - 46.4 °F 59% 30.08 in 10.0 mi NE 5.8 mph - N/A   Clear
6:55 PM 60.8 °F - 46.4 °F 59% 30.08 in 10.0 mi ENE 4.6 mph - N/A   Clear
7:15 PM 57.2 °F - 46.4 °F 67% 30.09 in 10.0 mi NE 3.5 mph - N/A   Clear
7:35 PM 55.4 °F - 44.6 °F 67% 30.09 in 10.0 mi Calm Calm - N/A   Clear
7:55 PM 53.6 °F - 44.6 °F 72% 30.09 in 10.0 mi Calm Calm - N/A   Clear
8:15 PM 51.8 °F - 44.6 °F 76% 30.09 in 10.0 mi Calm Calm - N/A   Clear
8:35 PM 51.8 °F - 42.8 °F 71% 30.09 in 10.0 mi Calm Calm - N/A   Clear
9:15 PM 48.2 °F - 41.0 °F 76% 30.09 in 10.0 mi Calm Calm - N/A   Clear
9:35 PM 46.4 °F - 41.0 °F 81% 30.10 in 10.0 mi Calm Calm - N/A   Clear
9:55 PM 48.2 °F - 42.8 °F 82% 30.10 in 10.0 mi Calm Calm - N/A   Clear
10:15 PM 48.2 °F - 42.8 °F 82% 30.11 in 10.0 mi Calm Calm - N/A   Clear
10:35 PM 48.2 °F - 42.8 °F 82% 30.10 in 10.0 mi Calm Calm - N/A   Clear
10:55 PM 46.4 °F - 39.2 °F 76% 30.10 in 10.0 mi Calm Calm - N/A   Clear
11:15 PM 46.4 °F - 39.2 °F 76% 30.11 in 10.0 mi Calm Calm - N/A   Clear
11:35 PM 44.6 °F - 39.2 °F 81% 30.11 in 10.0 mi Calm Calm - N/A   Clear
11:55 PM 46.4 °F - 39.2 °F 76% 30.11 in 10.0 mi Calm Calm - N/A   Clear